| time (UTC) | temp C | wind direction | speed KPH | gust KPH | rain 1hr cm | rain 24hr cm | rain mn cm | humidity % | barometer mb |
| 20260506212017 | 7 | 0 | 0.0 | 0.0 | 0.03 | 1.68 | 1.14 | 94 | 1009.0 |
| 20260506211529 | 7 | 0 | 0.0 | 0.0 | 0.03 | 1.68 | 1.14 | 94 | 1008.9 |
| 20260506211017 | 7 | 0 | 0.0 | 0.0 | 0.03 | 1.68 | 1.14 | 94 | 1008.9 |
| 20260506210516 | 7 | 0 | 0.0 | 0.0 | 0.03 | 1.68 | 1.14 | 94 | 1008.9 |
| 20260506210035 | 8 | 0 | 0.0 | 0.0 | 0.03 | 1.68 | 1.14 | 94 | 1008.8 |
| 20260506205518 | 8 | 0 | 0.0 | 0.0 | 0.03 | 1.68 | 1.14 | 94 | 1008.7 |
| 20260506205017 | 8 | 0 | 0.0 | 0.0 | 0.03 | 1.68 | 1.14 | 94 | 1008.6 |
| 20260506204536 | 8 | 0 | 0.0 | 0.0 | 0.03 | 1.68 | 1.14 | 94 | 1008.7 |
| 20260506204018 | 8 | 0 | 0.0 | 0.0 | 0.00 | 1.65 | 1.12 | 94 | 1008.3 |
| 20260506203519 | 8 | 0 | 0.0 | 0.0 | 0.03 | 1.65 | 1.12 | 94 | 1008.4 |
| 20260506203052 | 8 | 0 | 0.0 | 0.0 | 0.03 | 1.65 | 1.12 | 94 | 1008.3 |
| 20260506202518 | 8 | 0 | 0.0 | 0.0 | 0.03 | 1.65 | 1.12 | 94 | 1008.4 |
| 20260506202014 | 8 | 0 | 0.0 | 0.0 | 0.05 | 1.65 | 1.12 | 95 | 1008.3 |
| 20260506201533 | 8 | 0 | 0.0 | 0.0 | 0.05 | 1.65 | 1.12 | 94 | 1008.3 |
| 20260506201018 | 8 | 0 | 0.0 | 0.0 | 0.05 | 1.65 | 1.12 | 95 | 1008.4 |
| 20260506200517 | 8 | 0 | 0.0 | 0.0 | 0.05 | 1.65 | 1.12 | 95 | 1008.3 |
| 20260506200044 | 8 | 0 | 0.0 | 0.0 | 0.05 | 1.65 | 1.12 | 95 | 1008.2 |
| 20260506195517 | 8 | 0 | 0.0 | 0.0 | 0.05 | 1.85 | 1.12 | 95 | 1008.2 |
| 20260506195015 | 8 | 0 | 0.0 | 0.0 | 0.05 | 1.85 | 1.12 | 95 | 1008.3 |
| 20260506194531 | 8 | 0 | 0.0 | 0.0 | 0.05 | 1.85 | 1.12 | 95 | 1008.1 |
| 20260506194017 | 8 | 0 | 0.0 | 0.0 | 0.03 | 1.83 | 1.09 | 95 | 1008.1 |
| 20260506193518 | 8 | 0 | 0.0 | 0.0 | 0.03 | 1.83 | 1.09 | 95 | 1008.3 |
| 20260506193031 | 8 | 0 | 0.0 | 0.0 | 0.03 | 1.83 | 1.09 | 95 | 1008.3 |
| 20260506192516 | 8 | 0 | 0.0 | 0.0 | 0.05 | 1.83 | 1.09 | 95 | 1008.2 |
| 20260506192017 | 8 | 0 | 0.0 | 0.0 | 0.03 | 1.80 | 1.07 | 96 | 1008.1 |
| 20260506191532 | 8 | 0 | 0.0 | 0.0 | 0.03 | 1.80 | 1.07 | 96 | 1008.0 |
| 20260506191017 | 8 | 0 | 0.0 | 0.0 | 0.03 | 1.80 | 1.07 | 95 | 1008.0 |
| 20260506190517 | 8 | 0 | 0.0 | 0.0 | 0.03 | 1.80 | 1.07 | 95 | 1007.9 |
| 20260506190039 | 8 | 0 | 0.0 | 0.0 | 0.05 | 1.80 | 1.07 | 96 | 1007.9 |
| 20260506185514 | 8 | 0 | 0.0 | 0.0 | 0.05 | 1.85 | 1.07 | 96 | 1007.7 |
| 20260506185017 | 8 | 0 | 0.0 | 0.0 | 0.08 | 1.85 | 1.07 | 96 | 1007.7 |
| 20260506184529 | 8 | 0 | 0.0 | 0.0 | 0.08 | 1.85 | 1.07 | 96 | 1007.7 |
| 20260506184017 | 8 | 0 | 0.0 | 0.0 | 0.08 | 1.85 | 1.07 | 96 | 1007.8 |
| 20260506183517 | 8 | 0 | 0.0 | 0.0 | 0.08 | 1.85 | 1.07 | 96 | 1007.7 |
| 20260506183031 | 8 | 0 | 0.0 | 0.0 | 0.10 | 1.85 | 1.07 | 96 | 1007.6 |
| 20260506182516 | 8 | 0 | 0.0 | 0.0 | 0.08 | 1.83 | 1.04 | 96 | 1007.6 |
| 20260506182019 | 8 | 0 | 0.0 | 0.0 | 0.08 | 1.83 | 1.04 | 96 | 1007.4 |
| 20260506181533 | 8 | 0 | 0.0 | 0.0 | 0.08 | 1.83 | 1.04 | 96 | 1007.4 |
| 20260506181017 | 8 | 0 | 0.0 | 0.0 | 0.08 | 1.83 | 1.04 | 96 | 1007.4 |
| 20260506180515 | 8 | 0 | 0.0 | 0.0 | 0.05 | 1.80 | 1.02 | 96 | 1007.4 |
| 20260506180036 | 8 | 0 | 0.0 | 0.0 | 0.05 | 1.80 | 1.02 | 96 | 1007.3 |
| 20260506175514 | 7 | 0 | 0.0 | 0.0 | 0.08 | 1.83 | 1.02 | 96 | 1007.3 |
| 20260506175016 | 7 | 0 | 0.0 | 0.0 | 0.05 | 1.80 | 0.99 | 96 | 1007.4 |
| 20260506174530 | 7 | 0 | 0.0 | 0.0 | 0.05 | 1.80 | 0.99 | 96 | 1007.4 |
| 20260506174014 | 7 | 0 | 0.0 | 0.0 | 0.05 | 1.80 | 0.99 | 96 | 1007.3 |
| 20260506173518 | 7 | 0 | 0.0 | 0.0 | 0.08 | 1.80 | 0.99 | 96 | 1007.2 |
| 20260506173037 | 7 | 0 | 0.0 | 0.0 | 0.05 | 1.78 | 0.97 | 96 | 1007.3 |
| 20260506172517 | 7 | 0 | 0.0 | 0.0 | 0.05 | 1.78 | 0.97 | 96 | 1007.2 |
| 20260506172017 | 7 | 0 | 0.0 | 0.0 | 0.05 | 1.78 | 0.97 | 96 | 1007.1 |
| 20260506171535 | 7 | 0 | 0.0 | 0.0 | 0.05 | 1.78 | 0.97 | 96 | 1007.3 |
| 20260506171017 | 7 | 0 | 0.0 | 0.0 | 0.05 | 1.78 | 0.97 | 96 | 1007.2 |
| 20260506170521 | 7 | 0 | 0.0 | 0.0 | 0.05 | 1.78 | 0.97 | 96 | 1007.3 |
| 20260506170030 | 7 | 0 | 0.0 | 0.0 | 0.08 | 1.78 | 0.97 | 96 | 1007.3 |
| 20260506165517 | 7 | 0 | 0.0 | 0.0 | 0.08 | 1.75 | 0.94 | 96 | 1007.3 |
| 20260506165017 | 7 | 0 | 0.0 | 0.0 | 0.08 | 1.75 | 0.94 | 96 | 1007.6 |
| 20260506164531 | 7 | 0 | 0.0 | 0.0 | 0.08 | 1.75 | 0.94 | 96 | 1007.5 |
| 20260506164017 | 7 | 0 | 0.0 | 0.0 | 0.08 | 1.75 | 0.94 | 96 | 1007.4 |
| 20260506163518 | 7 | 0 | 0.0 | 0.0 | 0.05 | 1.73 | 0.91 | 96 | 1007.5 |
| 20260506163045 | 7 | 0 | 0.0 | 0.0 | 0.05 | 1.73 | 0.91 | 96 | 1007.5 |
| 20260506162517 | 7 | 0 | 0.0 | 0.0 | 0.05 | 1.73 | 0.91 | 95 | 1007.5 |
| 20260506162017 | 7 | 0 | 0.0 | 0.0 | 0.05 | 1.73 | 0.91 | 100 | 1007.4 |
| 20260506161530 | 7 | 0 | 0.0 | 0.0 | 0.05 | 1.73 | 0.91 | 95 | 1007.7 |
| 20260506161018 | 7 | 0 | 0.0 | 0.0 | 0.05 | 1.73 | 0.91 | 95 | 1007.5 |
| 20260506160517 | 7 | 0 | 0.0 | 0.0 | 0.05 | 1.73 | 0.91 | 95 | 1007.5 |
| 20260506160035 | 7 | 0 | 0.0 | 0.0 | 0.03 | 1.70 | 0.89 | 95 | 1007.4 |
| 20260506155517 | 7 | 0 | 0.0 | 0.0 | 0.00 | 1.68 | 0.86 | 95 | 1007.4 |
| 20260506155017 | 7 | 0 | 0.0 | 0.0 | 0.00 | 1.68 | 0.86 | 95 | 1007.9 |
| 20260506154537 | 7 | 0 | 0.0 | 0.0 | 0.00 | 1.68 | 0.86 | 95 | 1007.9 |
| 20260506154017 | 7 | 0 | 0.0 | 0.0 | 0.00 | 1.68 | 0.86 | 95 | 1007.8 |
| 20260506153517 | 7 | 0 | 0.0 | 0.0 | 0.00 | 1.68 | 0.86 | 95 | 1007.4 |
| 20260506153033 | 7 | 0 | 0.0 | 0.0 | 0.00 | 1.68 | 0.86 | 95 | 1007.4 |
| 20260506152517 | 7 | 0 | 0.0 | 0.0 | 0.03 | 1.68 | 0.86 | 95 | 1007.4 |
| 20260506152017 | 7 | 0 | 0.0 | 0.0 | 0.03 | 1.68 | 0.86 | 95 | 1007.3 |
| 20260506151539 | 7 | 0 | 0.0 | 0.0 | 0.05 | 1.68 | 0.86 | 95 | 1007.4 |
| 20260506151016 | 7 | 0 | 0.0 | 0.0 | 0.05 | 1.68 | 0.86 | 95 | 1007.2 |
| 20260506150519 | 7 | 0 | 0.0 | 0.0 | 0.05 | 1.68 | 0.86 | 95 | 1007.4 |
| 20260506150029 | 7 | 0 | 0.0 | 0.0 | 0.08 | 1.68 | 0.86 | 96 | 1007.7 |
| 20260506145517 | 7 | 0 | 0.0 | 0.0 | 0.08 | 1.68 | 0.86 | 96 | 1007.7 |
| 20260506145017 | 7 | 0 | 0.0 | 0.0 | 0.10 | 1.68 | 0.86 | 96 | 1007.6 |
| 20260506144534 | 7 | 0 | 0.0 | 0.0 | 0.10 | 1.68 | 0.86 | 96 | 1007.6 |
| 20260506144017 | 7 | 0 | 0.0 | 0.0 | 0.13 | 1.68 | 0.86 | 95 | 1007.6 |
| 20260506143517 | 7 | 0 | 0.0 | 0.0 | 0.15 | 1.68 | 0.86 | 96 | 1007.6 |
| 20260506143032 | 7 | 0 | 0.0 | 0.0 | 0.18 | 1.65 | 0.84 | 96 | 1007.4 |
| 20260506142520 | 7 | 0 | 0.0 | 0.0 | 0.20 | 1.65 | 0.84 | 95 | 1007.5 |
| 20260506142019 | 7 | 0 | 0.0 | 0.0 | 0.23 | 1.65 | 0.84 | 96 | 1007.4 |
| 20260506141532 | 7 | 0 | 0.0 | 0.0 | 0.23 | 1.63 | 0.81 | 100 | 1007.5 |
| 20260506141020 | 7 | 0 | 0.0 | 0.0 | 0.25 | 1.63 | 0.81 | 96 | 1007.4 |
| 20260506140517 | 7 | 0 | 0.0 | 0.0 | 0.28 | 1.63 | 0.81 | 96 | 1007.4 |
| 20260506140034 | 7 | 0 | 0.0 | 0.0 | 0.28 | 1.60 | 0.79 | 96 | 1007.4 |
| 20260506135518 | 7 | 0 | 0.0 | 0.0 | 0.28 | 1.60 | 0.79 | 96 | 1007.4 |
| 20260506135020 | 7 | 0 | 0.0 | 0.0 | 0.25 | 1.57 | 0.76 | 96 | 1007.5 |
| 20260506134531 | 7 | 0 | 0.0 | 0.0 | 0.28 | 1.57 | 0.76 | 96 | 1007.6 |
| 20260506134017 | 7 | 0 | 0.0 | 0.0 | 0.28 | 1.55 | 0.74 | 96 | 1007.6 |
| 20260506133517 | 7 | 0 | 0.0 | 0.0 | 0.23 | 1.47 | 0.69 | 95 | 1007.7 |
| 20260506133033 | 7 | 0 | 0.0 | 0.0 | 0.23 | 1.47 | 0.66 | 96 | 1007.6 |
| 20260506132520 | 7 | 0 | 0.0 | 0.0 | 0.23 | 1.45 | 0.64 | 96 | 1007.6 |
| 20260506132017 | 7 | 0 | 0.0 | 0.0 | 0.23 | 1.42 | 0.61 | 95 | 1007.6 |
| 20260506131535 | 7 | 0 | 0.0 | 0.0 | 0.23 | 1.40 | 0.58 | 95 | 1007.6 |
| 20260506131018 | 7 | 0 | 0.0 | 0.0 | 0.23 | 1.37 | 0.56 | 95 | 1007.6 |
| 20260506130519 | 7 | 0 | 0.0 | 0.0 | 0.20 | 1.32 | 0.53 | 95 | 1007.6 |
| 20260506130030 | 7 | 0 | 0.0 | 0.0 | 0.20 | 1.32 | 0.51 | 95 | 1007.5 |
| 20260506125516 | 7 | 0 | 0.0 | 0.0 | 0.20 | 1.32 | 0.51 | 95 | 1007.4 |
| 20260506125016 | 7 | 0 | 0.0 | 0.0 | 0.20 | 1.32 | 0.51 | 100 | 1007.4 |
| 20260506124530 | 7 | 0 | 0.0 | 0.0 | 0.18 | 1.30 | 0.48 | 95 | 1007.4 |
| 20260506124019 | 7 | 0 | 0.0 | 0.0 | 0.18 | 1.27 | 0.46 | 100 | 1007.4 |
| 20260506123520 | 7 | 0 | 0.0 | 0.0 | 0.15 | 1.24 | 0.43 | 96 | 1007.3 |
| 20260506123030 | 7 | 0 | 0.0 | 0.0 | 0.15 | 1.24 | 0.43 | 95 | 1007.2 |
| 20260506122514 | 7 | 0 | 0.0 | 0.0 | 0.15 | 1.22 | 0.41 | 96 | 1007.3 |
| 20260506122017 | 7 | 0 | 0.0 | 0.0 | 0.13 | 1.19 | 0.38 | 96 | 1007.4 |
| 20260506121530 | 7 | 0 | 0.0 | 0.0 | 0.10 | 1.17 | 0.36 | 95 | 1007.4 |
| 20260506121017 | 7 | 0 | 0.0 | 0.0 | 0.10 | 1.14 | 0.33 | 95 | 1007.4 |
| 20260506120517 | 7 | 0 | 0.0 | 0.0 | 0.10 | 1.14 | 0.33 | 95 | 1007.4 |
| 20260506120034 | 7 | 0 | 0.0 | 0.0 | 0.10 | 1.12 | 0.30 | 96 | 1007.4 |
| 20260506115516 | 7 | 0 | 0.0 | 0.0 | 0.10 | 1.12 | 0.30 | 96 | 1007.4 |
| 20260506115017 | 7 | 0 | 0.0 | 0.0 | 0.10 | 1.12 | 0.30 | 96 | 1007.4 |
| 20260506114530 | 7 | 0 | 0.0 | 0.0 | 0.13 | 1.12 | 0.30 | 96 | 1007.3 |
| 20260506114017 | 7 | 0 | 0.0 | 0.0 | 0.13 | 1.09 | 0.28 | 95 | 1007.5 |
| 20260506113516 | 7 | 0 | 0.0 | 0.0 | 0.13 | 1.09 | 0.28 | 96 | 1007.5 |
| 20260506113032 | 7 | 0 | 0.0 | 0.0 | 0.13 | 1.07 | 0.25 | 96 | 1007.7 |
| 20260506112521 | 7 | 0 | 0.0 | 0.0 | 0.13 | 1.07 | 0.25 | 96 | 1007.9 |
| 20260506112020 | 7 | 0 | 0.0 | 0.0 | 0.15 | 1.07 | 0.25 | 96 | 1007.8 |
| 20260506111534 | 7 | 0 | 0.0 | 0.0 | 0.13 | 1.04 | 0.23 | 96 | 1007.8 |
| 20260506111019 | 7 | 0 | 0.0 | 0.0 | 0.13 | 1.04 | 0.23 | 95 | 1007.9 |
| 20260506110517 | 7 | 0 | 0.0 | 0.0 | 0.10 | 1.02 | 0.20 | 95 | 1007.9 |
| 20260506110034 | 7 | 0 | 0.0 | 0.0 | 0.10 | 1.02 | 0.20 | 95 | 1007.9 |
| 20260506105517 | 7 | 0 | 0.0 | 0.0 | 0.10 | 1.04 | 0.20 | 95 | 1007.8 |
| 20260506105017 | 7 | 0 | 0.0 | 0.0 | 0.10 | 1.04 | 0.20 | 95 | 1007.6 |
| 20260506104529 | 7 | 0 | 0.0 | 0.0 | 0.10 | 1.02 | 0.18 | 95 | 1007.6 |
| 20260506104021 | 7 | 0 | 0.0 | 0.0 | 0.08 | 0.99 | 0.15 | 95 | 1007.8 |
| 20260506103517 | 7 | 0 | 0.0 | 0.0 | 0.08 | 0.99 | 0.15 | 95 | 1008.0 |
| 20260506103033 | 7 | 0 | 0.0 | 0.0 | 0.05 | 0.97 | 0.13 | 95 | 1007.7 |
| 20260506102517 | 8 | 0 | 0.0 | 0.0 | 0.08 | 0.97 | 0.13 | 95 | 1008.1 |
| 20260506102017 | 8 | 0 | 0.0 | 0.0 | 0.05 | 0.94 | 0.10 | 96 | 1008.2 |
| 20260506101530 | 8 | 0 | 0.0 | 0.0 | 0.05 | 0.94 | 0.10 | 96 | 1008.3 |
| 20260506101013 | 8 | 0 | 0.0 | 0.0 | 0.08 | 0.94 | 0.10 | 96 | 1008.4 |
| 20260506100516 | 8 | 0 | 0.0 | 0.0 | 0.08 | 0.94 | 0.10 | 100 | 1008.0 |
| 20260506100034 | 8 | 0 | 0.0 | 0.0 | 0.08 | 0.94 | 0.10 | 96 | 1008.1 |
| 20260506095514 | 8 | 0 | 0.0 | 0.0 | 0.10 | 0.94 | 0.10 | 96 | 1008.0 |
| 20260506095018 | 8 | 0 | 0.0 | 0.0 | 0.10 | 0.94 | 0.10 | 96 | 1007.9 |
| 20260506094530 | 8 | 0 | 0.0 | 0.0 | 0.08 | 0.91 | 0.08 | 96 | 1007.9 |
| 20260506094014 | 8 | 0 | 0.0 | 0.0 | 0.08 | 0.91 | 0.08 | 100 | 1007.9 |
| 20260506093521 | 8 | 0 | 0.0 | 0.0 | 0.08 | 0.91 | 0.08 | 96 | 1007.8 |
| 20260506093033 | 8 | 0 | 0.0 | 0.0 | 0.08 | 0.91 | 0.08 | 100 | 1007.9 |
| 20260506092518 | 8 | 0 | 0.0 | 0.0 | 0.05 | 0.89 | 0.05 | 96 | 1007.8 |
| 20260506092017 | 8 | 0 | 0.0 | 0.0 | 0.05 | 0.89 | 0.05 | 96 | 1008.4 |
| 20260506091532 | 8 | 0 | 0.0 | 0.0 | 0.05 | 0.89 | 0.05 | 96 | 1008.2 |
| 20260506091020 | 8 | 0 | 0.0 | 0.0 | 0.03 | 0.86 | 0.03 | 96 | 1008.3 |
| 20260506090513 | 8 | 0 | 0.0 | 0.0 | 0.03 | 0.86 | 0.03 | 96 | 1008.2 |
| 20260506090030 | 8 | 0 | 0.0 | 0.0 | 0.03 | 0.86 | 0.03 | 96 | 1008.3 |
| 20260506085516 | 8 | 0 | 0.0 | 0.0 | 0.00 | 0.84 | 0.00 | 96 | 1008.3 |
| 20260506085016 | 8 | 0 | 0.0 | 0.0 | 0.00 | 0.84 | 0.00 | 96 | 1008.5 |
| 20260506084537 | 8 | 0 | 0.0 | 0.0 | 0.00 | 0.84 | 0.00 | 96 | 1008.5 |
| 20260506084017 | 8 | 0 | 0.0 | 0.0 | 0.00 | 0.84 | 0.00 | 96 | 1008.3 |
| 20260506083514 | 8 | 0 | 0.0 | 0.0 | 0.00 | 0.84 | 0.00 | 96 | 1008.2 |
| 20260506083033 | 8 | 0 | 0.0 | 0.0 | 0.00 | 0.84 | 0.00 | 96 | 1008.1 |
| 20260506082514 | 8 | 0 | 0.0 | 0.0 | 0.00 | 0.84 | 0.00 | 96 | 1008.0 |
| 20260506082015 | 8 | 0 | 0.0 | 0.0 | 0.00 | 0.84 | 0.00 | 96 | 1008.1 |
| 20260506081537 | 8 | 0 | 0.0 | 0.0 | 0.00 | 0.84 | 0.00 | 96 | 1008.1 |
| 20260506081017 | 8 | 0 | 0.0 | 0.0 | 0.00 | 0.84 | 0.00 | 96 | 1008.0 |
| 20260506080517 | 8 | 0 | 0.0 | 0.0 | 0.00 | 0.84 | 0.00 | 96 | 1007.9 |
| 20260506073030 | 8 | 0 | 0.0 | 0.0 | 0.00 | 0.84 | 0.00 | 96 | 1008.1 |
| 20260506072516 | 8 | 0 | 0.0 | 0.0 | 0.00 | 0.84 | 0.00 | 95 | 1008.1 |
| 20260506072014 | 8 | 0 | 0.0 | 0.0 | 0.00 | 0.84 | 0.00 | 96 | 1008.2 |
| 20260506071532 | 8 | 0 | 0.0 | 0.0 | 0.00 | 0.84 | 0.00 | 95 | 1008.5 |
| 20260506071017 | 8 | 0 | 0.0 | 0.0 | 0.00 | 0.84 | 0.00 | 96 | 1008.5 |
| 20260506070517 | 8 | 0 | 0.0 | 0.0 | 0.00 | 0.84 | 0.00 | 96 | 1008.1 |
| 20260506062517 | 8 | 0 | 0.0 | 0.0 | 0.00 | 0.84 | 0.00 | 95 | 1009.2 |
| 20260506062017 | 8 | 0 | 0.0 | 0.0 | 0.00 | 0.84 | 0.00 | 95 | 1009.6 |
| 20260506061531 | 8 | 0 | 0.0 | 0.0 | 0.00 | 0.84 | 0.00 | 95 | 1009.0 |
| 20260506061019 | 8 | 0 | 0.0 | 0.0 | 0.00 | 0.84 | 0.00 | 95 | 1009.0 |
| 20260506060514 | 8 | 0 | 0.0 | 0.0 | 0.00 | 0.84 | 0.00 | 95 | 1009.5 |
| 20260506051017 | 9 | 0 | 0.0 | 0.0 | 0.00 | 0.84 | 0.00 | 95 | 1010.2 |
| 20260506050520 | 9 | 0 | 0.0 | 0.0 | 0.00 | 0.84 | 0.00 | 94 | 1010.1 |
| 20260506045016 | 9 | 0 | 0.0 | 0.0 | 0.00 | 0.84 | 0.00 | 94 | 1010.1 |
| 20260506044530 | 9 | 0 | 0.0 | 0.0 | 0.00 | 0.84 | 0.00 | 94 | 1009.9 |
| 20260506044016 | 9 | 0 | 0.0 | 0.0 | 0.00 | 0.84 | 0.00 | 94 | 1010.0 |
| 20260506043518 | 9 | 0 | 0.0 | 0.0 | 0.00 | 0.84 | 0.00 | 94 | 1010.2 |
| 20260506043031 | 9 | 0 | 0.0 | 0.0 | 0.00 | 0.84 | 0.00 | 94 | 1010.2 |
| 20260506042516 | 9 | 0 | 0.0 | 0.0 | 0.03 | 0.84 | 0.00 | 94 | 1010.2 |
| 20260506042016 | 9 | 0 | 0.0 | 0.0 | 0.05 | 0.84 | 0.00 | 94 | 1010.1 |
| 20260506041550 | 9 | 0 | 0.0 | 0.0 | 0.08 | 0.84 | 0.00 | 94 | 1010.2 |
| 20260506041119 | 9 | 0 | 0.0 | 0.0 | 0.13 | 0.84 | 0.00 | 94 | 1010.4 |
| 20260506040517 | 9 | 0 | 0.0 | 0.0 | 0.15 | 0.84 | 0.00 | 94 | 1010.4 |
| 20260506040033 | 9 | 0 | 0.0 | 0.0 | 0.15 | 0.84 | 0.00 | 94 | 1010.7 |
| 20260506035518 | 9 | 0 | 0.0 | 0.0 | 0.15 | 0.84 | 0.84 | 94 | 1010.5 |
| 20260506035018 | 9 | 0 | 0.0 | 0.0 | 0.15 | 0.84 | 0.84 | 94 | 1010.8 |
| 20260506034546 | 9 | 0 | 0.0 | 0.0 | 0.15 | 0.84 | 0.84 | 94 | 1010.7 |
| 20260506034021 | 9 | 0 | 0.0 | 0.0 | 0.15 | 0.84 | 0.84 | 93 | 1010.8 |
| 20260506033519 | 9 | 0 | 0.0 | 0.0 | 0.15 | 0.84 | 0.84 | 93 | 1010.9 |
| 20260506033028 | 10 | 0 | 0.0 | 0.0 | 0.15 | 0.84 | 0.84 | 93 | 1010.7 |
| 20260506032516 | 10 | 0 | 0.0 | 0.0 | 0.13 | 0.81 | 0.81 | 93 | 1010.6 |
| 20260506032016 | 10 | 0 | 0.0 | 0.0 | 0.10 | 0.79 | 0.79 | 93 | 1010.4 |
| 20260506031533 | 10 | 0 | 0.0 | 0.0 | 0.05 | 0.74 | 0.74 | 92 | 1010.6 |
| 20260506031015 | 10 | 0 | 0.0 | 0.0 | 0.03 | 0.71 | 0.71 | 92 | 1010.5 |
| 20260506030515 | 10 | 0 | 0.0 | 0.0 | 0.00 | 0.69 | 0.69 | 92 | 1010.6 |
| 20260506030032 | 10 | 0 | 0.0 | 0.0 | 0.00 | 0.69 | 0.69 | 92 | 1010.8 |
| 20260506025519 | 10 | 0 | 0.0 | 0.0 | 0.00 | 0.69 | 0.69 | 92 | 1010.8 |
| 20260506025015 | 10 | 0 | 0.0 | 0.0 | 0.00 | 0.69 | 0.69 | 91 | 1011.1 |
| 20260506024534 | 10 | 0 | 0.0 | 0.0 | 0.00 | 0.69 | 0.69 | 91 | 1010.9 |
| 20260506024016 | 10 | 0 | 0.0 | 0.0 | 0.00 | 0.69 | 0.69 | 91 | 1010.8 |
| 20260506023519 | 10 | 0 | 0.0 | 0.0 | 0.00 | 0.69 | 0.69 | 91 | 1011.0 |
| 20260506023031 | 10 | 0 | 0.0 | 0.0 | 0.00 | 0.69 | 0.69 | 90 | 1010.7 |
| 20260506022516 | 10 | 0 | 0.0 | 0.0 | 0.00 | 0.69 | 0.69 | 90 | 1010.4 |
| 20260506022016 | 10 | 0 | 0.0 | 0.0 | 0.00 | 0.69 | 0.69 | 89 | 1010.3 |
| 20260506021528 | 10 | 0 | 0.0 | 0.0 | 0.00 | 0.69 | 0.69 | 88 | 1010.3 |
| 20260506021016 | 10 | 0 | 0.0 | 0.0 | 0.00 | 0.69 | 0.69 | 87 | 1010.1 |
| 20260506020519 | 11 | 0 | 0.0 | 0.0 | 0.00 | 0.69 | 0.69 | 87 | 1010.1 |
| 20260506020032 | 11 | 0 | 0.0 | 0.0 | 0.00 | 0.69 | 0.69 | 87 | 1010.1 |
| 20260506015516 | 11 | 0 | 0.0 | 0.0 | 0.00 | 0.69 | 0.69 | 87 | 1010.2 |
| 20260506015016 | 11 | 0 | 0.0 | 0.0 | 0.00 | 0.69 | 0.69 | 87 | 1010.1 |
| 20260506014533 | 11 | 0 | 0.0 | 0.0 | 0.00 | 0.69 | 0.69 | 88 | 1010.1 |
| 20260506014018 | 12 | 0 | 0.0 | 0.0 | 0.00 | 0.69 | 0.69 | 89 | 1009.9 |
| 20260506013518 | 12 | 0 | 0.0 | 0.0 | 0.00 | 0.69 | 0.69 | 91 | 1009.9 |
| 20260506013043 | 12 | 0 | 0.0 | 0.0 | 0.03 | 0.69 | 0.69 | 91 | 1009.8 |
| 20260506012518 | 12 | 0 | 0.0 | 0.0 | 0.05 | 0.69 | 0.69 | 92 | 1009.6 |
| 20260506012019 | 12 | 0 | 0.0 | 0.0 | 0.10 | 0.69 | 0.69 | 92 | 1009.7 |
| 20260506011541 | 12 | 0 | 0.0 | 0.0 | 0.15 | 0.69 | 0.69 | 92 | 1009.7 |
| 20260506011016 | 12 | 0 | 0.0 | 0.0 | 0.20 | 0.69 | 0.69 | 92 | 1009.6 |
| 20260506010516 | 12 | 0 | 0.0 | 0.0 | 0.25 | 0.69 | 0.69 | 92 | 1009.4 |
| 20260506010036 | 12 | 0 | 0.0 | 0.0 | 0.36 | 0.69 | 0.69 | 91 | 1009.7 |
| 20260506005516 | 12 | 0 | 0.0 | 0.0 | 0.38 | 0.69 | 0.69 | 91 | 1009.5 |
| 20260506005018 | 13 | 0 | 0.0 | 0.0 | 0.38 | 0.69 | 0.69 | 91 | 1009.6 |
| 20260506004532 | 13 | 0 | 0.0 | 0.0 | 0.38 | 0.69 | 0.69 | 90 | 1009.4 |
| 20260506004020 | 13 | 0 | 0.0 | 0.0 | 0.38 | 0.69 | 0.69 | 89 | 1009.5 |
| 20260506003518 | 13 | 0 | 0.0 | 0.0 | 0.38 | 0.69 | 0.69 | 88 | 1009.5 |
| 20260506003032 | 13 | 0 | 0.0 | 0.0 | 0.36 | 0.66 | 0.66 | 87 | 1009.4 |
| 20260506002518 | 14 | 0 | 0.0 | 0.0 | 0.33 | 0.64 | 0.64 | 87 | 1009.3 |
| 20260506002018 | 14 | 0 | 0.0 | 0.0 | 0.28 | 0.58 | 0.58 | 87 | 1009.3 |
| 20260506001535 | 15 | 0 | 0.0 | 0.0 | 0.23 | 0.53 | 0.53 | 86 | 1009.1 |
| 20260506001018 | 15 | 0 | 0.0 | 0.0 | 0.18 | 0.48 | 0.48 | 86 | 1008.7 |
| 20260506000518 | 15 | 0 | 0.0 | 0.0 | 0.13 | 0.43 | 0.43 | 86 | 1008.6 |
| 20260506000033 | 15 | 0 | 0.0 | 0.0 | 0.03 | 0.33 | 0.33 | 85 | 1008.5 |
| 20260505235518 | 15 | 0 | 0.0 | 0.0 | 0.00 | 0.30 | 0.30 | 83 | 1008.6 |
| 20260505235021 | 16 | 0 | 0.0 | 0.0 | 0.00 | 0.30 | 0.30 | 82 | 1008.1 |
| 20260505234532 | 16 | 0 | 0.0 | 0.0 | 0.00 | 0.30 | 0.30 | 82 | 1007.7 |
| 20260505234019 | 16 | 0 | 0.0 | 0.0 | 0.00 | 0.30 | 0.30 | 81 | 1007.6 |
| 20260505233519 | 16 | 0 | 0.0 | 0.0 | 0.00 | 0.30 | 0.30 | 81 | 1007.5 |
| 20260505233038 | 16 | 0 | 0.0 | 0.0 | 0.00 | 0.30 | 0.30 | 80 | 1007.4 |
| 20260505232518 | 16 | 0 | 0.0 | 0.0 | 0.00 | 0.30 | 0.30 | 81 | 1007.1 |
| 20260505232018 | 16 | 0 | 0.0 | 0.0 | 0.00 | 0.30 | 0.30 | 81 | 1006.9 |
| 20260505231530 | 17 | 0 | 0.0 | 0.0 | 0.00 | 0.30 | 0.30 | 80 | 1007.0 |
| 20260505231018 | 17 | 0 | 0.0 | 0.0 | 0.00 | 0.30 | 0.30 | 79 | 1007.0 |
| 20260505230515 | 17 | 0 | 0.0 | 0.0 | 0.00 | 0.30 | 0.30 | 79 | 1007.0 |
| 20260505230045 | 18 | 0 | 0.0 | 0.0 | 0.00 | 0.30 | 0.30 | 80 | 1007.1 |
| 20260505225517 | 18 | 0 | 0.0 | 0.0 | 0.00 | 0.30 | 0.30 | 80 | 1006.9 |
| 20260505225018 | 18 | 0 | 0.0 | 0.0 | 0.00 | 0.30 | 0.30 | 79 | 1006.6 |
| 20260505224534 | 19 | 0 | 0.0 | 0.0 | 0.00 | 0.30 | 0.30 | 77 | 1006.4 |
| 20260505224018 | 20 | 0 | 0.0 | 0.0 | 0.00 | 0.30 | 0.30 | 74 | 1006.3 |
| 20260505223522 | 20 | 0 | 0.0 | 0.0 | 0.00 | 0.30 | 0.30 | 78 | 1006.1 |
| 20260505223042 | 20 | 0 | 0.0 | 0.0 | 0.00 | 0.30 | 0.30 | 74 | 1006.2 |
| 20260505222522 | 20 | 0 | 0.0 | 0.0 | 0.00 | 0.30 | 0.30 | 76 | 1006.2 |
| 20260505222018 | 20 | 0 | 0.0 | 0.0 | 0.00 | 0.30 | 0.30 | 76 | 1006.1 |
| 20260505221544 | 20 | 0 | 0.0 | 0.0 | 0.00 | 0.30 | 0.30 | 77 | 1005.7 |
| 20260505221020 | 20 | 0 | 0.0 | 0.0 | 0.00 | 0.30 | 0.30 | 76 | 1005.7 |
| 20260505220518 | 20 | 0 | 0.0 | 0.0 | 0.00 | 0.30 | 0.30 | 74 | 1005.9 |
| 20260505220049 | 20 | 0 | 0.0 | 0.0 | 0.00 | 0.30 | 0.30 | 74 | 1006.0 |
| 20260505215518 | 20 | 0 | 0.0 | 0.0 | 0.00 | 0.30 | 0.30 | 73 | 1005.9 |
| 20260505215018 | 20 | 0 | 0.0 | 0.0 | 0.00 | 0.30 | 0.30 | 76 | 1005.7 |
| 20260505214537 | 20 | 0 | 0.0 | 0.0 | 0.00 | 0.30 | 0.30 | 78 | 1005.7 |
| 20260505214018 | 19 | 0 | 0.0 | 0.0 | 0.00 | 0.30 | 0.30 | 79 | 1005.5 |
| 20260505213523 | 19 | 0 | 0.0 | 0.0 | 0.00 | 0.30 | 0.30 | 85 | 1005.6 |
| 20260505213035 | 19 | 0 | 0.0 | 0.0 | 0.00 | 0.30 | 0.30 | 84 | 1005.3 |
| 20260505212518 | 18 | 0 | 0.0 | 0.0 | 0.00 | 0.30 | 0.30 | 82 | 1005.3 |